This is the latest recevied weather packets stored in our database for station/object VA2CPJ. If no packets are shown the sender has not sent any weather packets the latest 10 day(s).
| Time | Temp. | Humidity | Pressure | Rain* | Wind** | Luminosity | Snow |
|---|---|---|---|---|---|---|---|
| 1777757142 | 6.67° C | 86% | 1019.8 hPa | - | - | - | - |
| 1777755331 | 6.67° C | 85% | 1019.8 hPa | - | - | - | - |
| 1777755042 | 6.67° C | 86% | 1019.1 hPa | - | - | - | - |
| 1777752924 | 6.67° C | 84% | 1020.1 hPa | - | - | - | - |
| 1777751769 | 7.22° C | 80% | 1019.8 hPa | - | - | - | - |
| 1777750623 | 7.78° C | 74% | 1020.1 hPa | - | - | - | - |
| 1777750221 | 7.78° C | 75% | 1019.5 hPa | - | - | - | - |
| 1777748744 | 8.89° C | 65% | 1020.1 hPa | - | - | - | - |
| 1777748173 | 8.89° C | 63% | 1020.1 hPa | - | - | - | - |
| 1777746624 | 8.89° C | 61% | 1019.1 hPa | - | - | - | - |
| 1777745128 | 8.89° C | 53% | 1019.8 hPa | - | - | - | - |
| 1777741226 | 10° C | 49% | 1019.5 hPa | - | - | - | - |
| 1777740963 | 10° C | 48% | 1020.1 hPa | - | - | - | - |
| 1777738675 | 9.44° C | 49% | 1020.5 hPa | - | - | - | - |
| 1777738224 | 10° C | 48% | 1019.8 hPa | - | - | - | - |
| 1777737927 | 10.56° C | 46% | 1020.8 hPa | - | - | - | - |
| 1777737332 | 11.11° C | 49% | 1020.8 hPa | - | - | - | - |
| 1777736719 | 8.89° C | 50% | 1020.8 hPa | - | - | - | - |
| 1777734620 | 8.33° C | 48% | 1020.5 hPa | - | - | - | - |
| 1777733727 | 7.78° C | 50% | 1021.5 hPa | - | - | - | - |
| 1777733150 | 7.78° C | 53% | 1021.5 hPa | - | - | - | - |
| 1777731977 | 7.22° C | 53% | 1021.5 hPa | - | - | - | - |
| 1777731627 | 7.22° C | 55% | 1020.8 hPa | - | - | - | - |
| 1777731023 | 7.22° C | 57% | 1021.2 hPa | - | - | - | - |
| 1777729072 | 5.56° C | 57% | 1022.2 hPa | - | - | - | - |
* Rain since midnight (hover to see other rain measurements)
** Current wind speed in m/s (hover to see current wind gust speed)